Zurück zum Katalog

STARLINK-4141

AktivKommunikationVLEO
NORAD 53138·PAYLOAD·🇺🇸 United States

Gestartet Jul 17, 2022 von Cape Canaveral Space Force Station

Loading…

Nächste Überflüge (nächste 24 Stunden)

TLE

AktuellSource: CelesTrak SupGP

Epoche: Sep 15, 2026, 02:29 UTC

1 53138C 22083G   26258.10395833 -.00006990  00000+0 -22495-3 0  2588
2 53138  53.1602  28.9549 0001302  90.4243 357.5362 15.31679224    16

Verfolge STARLINK-4141 in Echtzeit mit AllMySat

Download on the App Store